Weather in Suraz

Poland     52°56′57″N   22°57′26″E
temp.,
°C
wind,
m/s
gust,
m/s
humid.,
%
clouds,
%
prec.,
mm/h
press.,
hPa
HPBL,
m
27 october, wed
wed2723:00+9wsw51266100 0.0 1020442
02:00+8wsw5108374 0.0 1020378
05:00+7w410945 0.1 1021266
08:00+6wsw4109710 0.1 1022232
11:00+11wsw61074100 0.0 1022575
14:00+11sw61275100 0.0 1021611
17:00+11wsw61173100 0.0 1021539
20:00+10wsw61377100 0.0 1021535
28 october, thu
thu2823:00+9wsw61388100 0.0 1021362
02:00+8wsw51294100 0.0 1021320
05:00+8w51196100 0.0 1022290
08:00+10wsw51190100 0.0 1022266
11:00+13w5878100 0.0 1023406
14:00+15w457097 0.0 1024641
17:00+12wsw3386100 0.0 102429
20:00+10sw229026 0.0 102511
29 october, fri
fri2923:00+9ssw229256 0.0 102620
02:00+8sse339358 0.0 102638
05:00+8sse36947 0.0 1025100
08:00+7sse410955 0.0 1025185
11:00+13sse610725 0.0 1024453
14:00+16sse710635 0.0 1023676
17:00+13se5127346 0.0 1022325
20:00+12se6157896 0.0 1022412
30 october, sat
sat3023:00+11sse71684100 0.0 1021409
02:00+10sse615855 0.0 1020369
05:00+9sse6148852 0.0 1019329
08:00+8sse6138859 0.0 1020342
11:00+13s610565 0.0 1020543
14:00+15s57430 0.0 1019547
17:00+12s47572 0.0 1020112
20:00+10ssw34625 0.0 102152
31 october, sun
sun3123:00+9sse34670 0.0 102058
02:00+8sse35752 0.0 102083
04:00+7sse49725 0.0 1018142
07:00+7se5137715 0.0 1017240
10:00+12sse71557100 0.0 1014568
13:00+15sse81651100 0.0 1012857
16:00+14sse71552100 0.0 1011665
19:00+13s71554100 0.0 1010630